SCOUT G-1 DEB, 16020

Orbit data source: Space-Track

SCOUT G-1 DEB, 16020 is space debris in LEO originally from a launch on Sat, 03 Aug 1985 UTC launched from the Air Force Western Test Range (AFWTR). Debris objects in space refer to the collection of defunct objects orbiting the Earth. Examples of debris include non-operational satellites, rocket bodies, and fragments generated from explosions, collisions, or faulty payload assembly.

Loading next visibility...
Identifier
16020, 1985-066F
Orbit
LEO
Country
Flag of USUS
Related business
Manufacturer
Unknown
Mission
Spacecraft
Bus & Motor
Unknown
Mass
Unknown
Launch date (UTC)
1985-08-03 (41 years ago)
Launch vehicle
Unknown
Launch site
Air Force Western Test Range (AFWTR)
Object type
Payload
Rocket body
Debris
Shape & HBR
Unknown shape, 0.1 m
Radar Cross Section
Medium (>0.1 m² and <1 m²)

Expand to show TLE details & history
Last TLE update: 6 days ago

TLE from 6 days ago
0 SCOUT G-1 DEB
1 16020U 85066F   26167.55441693  .00000125  00000-0  20206-3 0  9994
2 16020  90.2171  11.6574 0138128 306.9299 107.6554 13.41047850995831
Epoch: 2026-06-16T13:18Z
TLE epoch observation values (Epoch: 2026-06-16T13:18:21.622Z)
Latitude
56.17722°
Longitude
-93.07985°
Altitude
1,147.465 km
Speed
7.268 km/s
True Right ascension
00h 45m 20s
True Declination
56° 01' 35"
Sunlit
Object was in daylight at epoch
Visualization orbit readout
Latitude
Unknown
Longitude
Unknown
Altitude
Unknown
Speed
Unknown
Apparent Right ascension
Unknown
Apparent Declination
Unknown
Sunlit
N/A
Visualization observer readout
Local Sidereal Time
00:39:40
Azimuth
Unknown
Elevation
Unknown
Doppler factor
Unknown
Orbital elements
Apogee altitude
1,205.768 km
Perigee altitude
999.113 km
Semi-major axis
7,480.578 km
Eccentricity
0.01381
Inclination
90.2171°
RAAN
11.6574°
Arg. of periapsis
306.9299°
True anomaly
109.15565°
Mean anomaly
107.6554°
Eccentric anomaly
108.40633°
Mean motion
3.3546 °/min
Orbital period
107.32 mins
BSTAR
0.00020206
Loading maneuver chart data...
Computing Atmospheric mass density...
Loading historical data...
Loading historical data...
Loading historical data...
Loading historical data...
Loading historical data...
Loading historical data...
Loading historical data...

Documentation

Showing up to 5 results
|